Regional Weather Roundup
Issued by NWS Kansas City/Pleasant Hill, MO

Home | Current Version | Previous Version | Graphics & Text | Print | Product List | Glossary Off
Versions: 1 2 3 4 5 6 7 8 9 10 11 12 13 14 15 16 17 18 19 20 21 22 23 24 25 26 27 28 29 30 31 32 33 34 35 36 37 38 39 40 41 42 43 44 45 46 47 48 49 50

000
ASUS43 KEAX 260304
RWREAX

WEATHER ROUNDUP FOR EASTERN KANSAS AND NORTHWEST MISSOURI
NATIONAL WEATHER SERVICE KANSAS CITY/PLEASANT HILL MO
900 PM CST THU DEC 25 2014

KSZ040-057-103>105-MOZ028-029-037-043-260400-
...KANSAS CITY METROPOLITAN AREA...

CITY           SKY/WX    TMP DP  RH WIND       PRES   REMARKS
K.C. INTL      MOCLDY    49  30  48 S16       29.76R
K.C. DOWNTOWN  MOCLDY    51  29  42 S15       29.77S
LEES SUMMIT    MOCLDY    49  29  46 S14G25    29.80R
OLATHE - IXD   CLOUDY    49  31  49 S16       29.78R
OLATHE - OJC   CLOUDY    50  30  46 S17G29    29.78R
LAWRENCE       MOCLDY    49  30  48 S16G25    29.75S

$$

MOZ001>008-011>017-020>025-030>033-038>040-044>046-053-054-260400-
...NORTHERN AND CENTRAL MISSOURI...

CITY           SKY/WX    TMP DP  RH WIND       PRES   REMARKS
ST. JOSEPH     MOCLDY    44  31  60 S10       29.75R
MOSBY          CLOUDY    50  32  50 S8        29.79S
WARRENSBURG    PTCLDY    46  30  53 S12G21    29.82R
WHITEMAN AFB   NOT AVBL
CLINTON        MOCLDY    48  32  53 S16G24    29.85R
SEDALIA        PTCLDY    48  29  47 S15G24    29.85R
WARSAW         NOT AVBL
MARSHALL       MOCLDY    46  34  61 S12       29.85R
CHILLICOTHE      N/A     48  31  51 S9        29.81R
MOBERLY        PTCLDY    46  28  49 S14       29.86R
KIRKSVILLE     MOCLDY    37  31  78 S9        29.84R WCI  30

$$

MOZ041-047>049-056>058-063>065-088>090-097-260400-
...EASTERN AND SOUTHERN MISSOURI...

CITY           SKY/WX    TMP DP  RH WIND       PRES   REMARKS
ST. LOUIS INTL MOCLDY    45  35  68 S14       29.99S
SPIRIT OF STL  PTCLDY    45  34  65 S8        29.97S
COLUMBIA       CLOUDY    45  31  58 S17       29.89R
JEFFERSON CITY CLOUDY    48  30  49 SE10      29.91R
MEXICO         PTCLDY    45  36  70 S13       29.89R
HANNIBAL       MOCLDY    46  28  49 S10G18    29.89R
ROLLA          CLOUDY    44  32  62 S16G24    29.91R
LEBANON        CLOUDY    46  30  53 S16G22    29.90F
OSAGE BEACH    CLOUDY    48  28  46 S15G22    29.90R
SPRINGFIELD    CLOUDY    46  29  51 S22G30    29.87R
BRANSON        CLEAR     45  30  57 S7        29.94F
NEVADA         CLOUDY    46  30  53 S15G21    29.86R
JOPLIN         CLOUDY    50  28  42 S20G26    29.87R
WEST PLAINS    PTCLDY    43  33  68 S13       30.00F

$$

IAZ060-094-KSZ022-034>040-054-083-096-NEZ052-066-093-260400-
...KANSAS...SOUTHEAST NEBRASKA AND IOWA...

CITY           SKY/WX    TMP DP  RH WIND       PRES   REMARKS
TOPEKA         PTCLDY    51  30  44 S7        29.73R
MANHATTAN      PTCLDY    50  29  44 SW13      29.69R
EMPORIA        CLOUDY    48  28  46 S17G24    29.72S
CHANUTE        MOCLDY    49  31  49 S20       29.80R
WICHITA        MOCLDY    49  28  44 S12       29.74R
OMAHA          MOCLDY    38  31  76 CALM      29.71R
LINCOLN        PTCLDY    32  28  85 N5        29.69R WCI  27
FALLS CITY     MOCLDY    39  30  70 SE7       29.71R WCI  34
LAMONI         CLOUDY    43  32  65 S12       29.76R
DES MOINES     CLOUDY    43  30  60 SE13      29.77R

$$



USA.gov is the U.S. government's official web portal to all federal, state and local government web resources and services.